Flag for New Zealand Weather past 2 weeks in Christchurch, New Zealand

Now
43 °F

Quite cool.


Feels Like: 43 °F
Forecast: 48 / 66 °F
Wind: 1 mph from West

Location: Christchurch Airport

Current Time: Apr 20, 2015 at 7:19:22 AM

Latest Report: Apr 20, 2015 at 7:00 AM


Visibility: N/A

Pressure: 30.09 "Hg

Humidity: 100%

Dew point: 43 °F

Location of ChristchurchLocation

Historic Weather in Christchurch — Graph

°F

Christchurch temperature yesterday

Maximum temperature yesterday: 63 °F (at 12:30 PM)
Minimum temperature yesterday: 43 °F (at 8:00 AM)
Average temperature yesterday: 54 °F

Past Weeks' High & Low Weather Summary

 TemperatureHumidityPressure
High81 °F (Apr 7, 1:30 PM)100% (Apr 10, 3:00 AM)30.30 "Hg (Apr 10, 3:00 AM)
Low34 °F (Apr 17, 6:00 AM)36% (Apr 13, 1:30 PM)29.00 "Hg (Apr 13, 4:00 AM)
Average54 °F74%29.88 "Hg
* Reported Apr 5 6:00 AM — Apr 20 6:00 AM, Christchurch, Weather by CustomWeather, © 2015

Note: Actual official high and low records may vary slightly from our data, if they occured in-between our weather recording intervals... More about our weather records

Advertising

Christchurch weather history for previous 24 hours

 ConditionsComfort  
Time TempWeatherWind HumidityBarometerVisibility
6:00 AM
Mon, Apr 20
45 °FQuite cool.2 mph100%30.07 "Hg4 mi
5:30 AM45 °FFog.1 mph100%30.07 "HgN/A
5:00 AM45 °FFog.1 mph100%30.07 "HgN/A
4:30 AM45 °FFog.No wind100%30.07 "HgN/A
4:00 AM45 °FFog.2 mph100%30.07 "Hg1 mi
3:30 AM46 °FLight fog.2 mph100%30.07 "Hg1 mi
3:00 AM48 °FHaze.3 mph100%30.07 "Hg4 mi
2:30 AM46 °FPassing clouds.5 mph100%30.07 "Hg1 mi
2:00 AM46 °FLight fog.3 mph100%30.07 "Hg1 mi
1:30 AM46 °FDense fog.3 mph100%30.07 "Hg1 mi
1:00 AM48 °FFog.5 mph100%30.07 "Hg1 mi
12:30 AM48 °FFog.3 mph100%30.07 "HgN/A
12:00 AM48 °FFog.2 mph100%30.07 "HgN/A
11:30 PM
Sun, Apr 19
48 °FFog.3 mph100%30.09 "HgN/A
11:00 PM52 °FCool.3 mph94%30.09 "Hg6 mi
10:30 PM52 °FCool.6 mph94%30.09 "HgN/A
10:00 PM50 °FCool.5 mph100%30.09 "HgN/A
9:30 PM50 °FCool.5 mph100%30.09 "HgN/A
9:00 PM52 °FCool.6 mph94%30.09 "HgN/A
8:30 PM52 °FCool.3 mph94%30.09 "HgN/A
8:00 PM54 °FCool.7 mph94%30.09 "HgN/A
7:30 PM55 °FCool.7 mph88%30.09 "HgN/A
7:00 PM55 °FCool.8 mph94%30.09 "HgN/A
6:30 PM55 °FPassing clouds.9 mph94%30.09 "HgN/A
6:00 PM55 °FPassing clouds.12 mph94%30.09 "HgN/A
5:30 PM55 °FPassing clouds.14 mph88%30.09 "HgN/A
5:00 PM57 °FPassing clouds.13 mph82%30.12 "HgN/A
4:30 PM59 °FCool.15 mph77%30.12 "HgN/A
4:00 PM59 °FCool.13 mph77%30.12 "HgN/A
3:30 PM59 °FCool.14 mph77%30.12 "HgN/A
3:00 PM61 °FCool.15 mph72%30.12 "HgN/A
2:30 PM61 °FCool.16 mph72%30.12 "HgN/A
2:00 PM61 °FCool.15 mph72%30.12 "HgN/A
1:30 PM61 °FCool.15 mph72%30.15 "HgN/A
1:00 PM61 °FCool.15 mph68%30.15 "HgN/A
12:30 PM63 °FMild.15 mph68%30.15 "HgN/A
12:00 PM61 °FCool.14 mph72%30.18 "HgN/A
11:00 AM59 °FCool.16 mph72%30.18 "HgN/A
10:30 AM59 °FPassing clouds.15 mph72%30.18 "HgN/A
10:00 AM59 °FPassing clouds.15 mph77%30.18 "HgN/A
9:30 AM57 °FPartly sunny.14 mph82%30.21 "HgN/A
9:00 AM55 °FScattered clouds.15 mph82%30.18 "HgN/A
8:30 AM54 °FPartly sunny.7 mph94%30.18 "HgN/A
8:00 AM43 °FPartly sunny.7 mph100%30.18 "HgN/A
7:30 AM45 °FPartly sunny.5 mph93%30.18 "HgN/A
7:00 AM45 °FQuite cool.8 mph100%30.18 "HgN/A
Weather by CustomWeather, © 2015

See weather overviewHow to use our weather pages